Tracking 30995 objects as of 5-Jul-2025
HD Live streaming from Space Station
objects crossing your sky now

CZ-4C R/B

Track CZ-4C R/B now!
10-day predictions


NORAD ID: 49496
Int'l Code: 2021-109B
Perigee: 569.7 km
Apogee: 734.2 km
Inclination: 98.3 °
Period: 97.6 minutes
Semi major axis: 7022 km
RCS: Unknown
Launch date: November 22, 2021
Source: People's Republic of China (PRC)
Launch site: Jiuquan Satellite Launch Center, China (JSC)

Note: This is a ROCKET BODY
Your satellite tracking list
Your tracking list is empty




NASA's NSSDC Master Catalog

Two Line Element Set (TLE):
1 49496U 21109B   25186.60189336  .00000578  00000-0  84860-4 0  9993
2 49496  98.2522 248.4039 0117161 178.1695 181.9966 14.75110996194430
Source of the keplerian elements: AFSPC